Flag for Tunisia Weather past 2 weeks in Tunis, Tunisia

Now
73 °F

Passing clouds.


Feels Like: 74 °F
Forecast: 69 / 92 °F
Wind: 6 mph from Southwest

Location: Tunis-Carthage

Current Time: Aug 29, 2014 at 6:29:18 AM

Latest Report: Aug 29, 2014 at 6:00 AM


Visibility: N/A

Pressure: 29.98 "Hg

Humidity: 78%

Dew point: 66 °F

Location of TunisLocation

Historic Weather in Tunis — Graph

°F

Tunis temperature yesterday

Maximum temperature yesterday: 97 °F (at 12:30 PM)
Minimum temperature yesterday: 72 °F (at 3:00 AM)
Average temperature yesterday: 83 °F

Past Weeks' High & Low Weather Summary

 TemperatureHumidityPressure
High108 °F (Aug 19, 1:30 PM)94% (Aug 26, 2:30 AM)30.09 "Hg (Aug 26, 2:30 AM)
Low66 °F (Aug 26, 4:00 AM)20% (Aug 19, 1:30 PM)29.80 "Hg (Aug 19, 2:30 PM)
Average82 °F59%29.98 "Hg
* Reported Aug 14 5:00 AM — Aug 29 5:30 AM, Tunis, Weather by CustomWeather, © 2014

Note: Actual official high and low records may vary slightly from our data, if they occured in-between our weather recording intervals... More about our weather records

Advertising

Tunis weather history for previous 24 hours

 ConditionsComfort  
Time TempWeatherWind HumidityBarometerVisibility
5:30 AM
Aug 29
75 °FPassing clouds.10 mph78%29.98 "HgN/A
5:00 AM75 °FPassing clouds.6 mph78%29.98 "HgN/A
4:30 AM75 °FPassing clouds.7 mph78%29.98 "HgN/A
4:00 AM75 °FPassing clouds.9 mph78%29.98 "HgN/A
3:30 AM75 °FMild.7 mph78%29.98 "HgN/A
1:00 AM77 °FPassing clouds.9 mph65%29.98 "HgN/A
12:30 AM79 °FPassing clouds.7 mph61%29.98 "HgN/A
12:00 AM79 °FPassing clouds.5 mph61%29.98 "HgN/A
11:30 PM
Aug 28
79 °FPassing clouds.10 mph61%29.98 "HgN/A
11:00 PM79 °FPassing clouds.8 mph61%29.98 "HgN/A
10:30 PM79 °FPassing clouds.No wind65%29.98 "HgN/A
10:00 PM79 °FPassing clouds.6 mph61%29.98 "HgN/A
9:30 PM81 °FPassing clouds.3 mph58%29.98 "HgN/A
9:00 PM81 °FPassing clouds.6 mph54%29.98 "HgN/A
8:30 PM81 °FPassing clouds.8 mph62%29.98 "HgN/A
8:00 PM82 °FPassing clouds.10 mph55%29.98 "HgN/A
7:30 PM82 °FPassing clouds.13 mph58%29.95 "HgN/A
7:00 PM84 °FPassing clouds.8 mph51%29.95 "HgN/A
6:30 PM86 °FPassing clouds.10 mph49%29.95 "HgN/A
6:00 PM88 °FPassing clouds.12 mph43%29.95 "HgN/A
5:30 PM91 °FPassing clouds.14 mph34%29.95 "HgN/A
5:00 PM93 °FPassing clouds.15 mph32%29.95 "HgN/A
4:30 PM93 °FPassing clouds.14 mph30%29.95 "HgN/A
4:00 PM95 °FPassing clouds.13 mph28%29.95 "HgN/A
3:30 PM95 °FPassing clouds.13 mph28%29.95 "HgN/A
2:30 PM97 °FPassing clouds.14 mph28%29.95 "HgN/A
1:30 PM95 °FPassing clouds.12 mph36%29.95 "HgN/A
12:30 PM97 °FPassing clouds.12 mph27%29.95 "HgN/A
12:00 PM93 °FPassing clouds.10 mph30%29.95 "HgN/A
11:30 AM95 °FPassing clouds.9 mph28%29.95 "HgN/A
11:00 AM91 °FPassing clouds.7 mph34%29.95 "HgN/A
10:30 AM91 °FPassing clouds.8 mph34%29.98 "HgN/A
10:00 AM90 °FPassing clouds.7 mph31%29.98 "HgN/A
9:30 AM90 °FPassing clouds.6 mph29%29.98 "HgN/A
9:00 AM86 °FPassing clouds.5 mph40%29.98 "HgN/A
8:30 AM84 °FPassing clouds.6 mph48%29.95 "HgN/A
8:00 AM82 °FPassing clouds.6 mph51%29.95 "HgN/A
7:30 AM81 °FPassing clouds.5 mph62%29.95 "HgN/A
7:00 AM77 °FPassing clouds.No wind74%29.95 "HgN/A
6:30 AM75 °FScattered clouds.6 mph83%29.95 "HgN/A
6:00 AM73 °FScattered clouds.No wind83%29.95 "HgN/A
Weather by CustomWeather, © 2014

See weather overviewHow to use our weather pages